Location: Newark
(34.1333°N, 7.9667°W)
Time: 21:49:31
(UTC+00:00)

COSMOS 2251 DEB - Visible Passes

Search period start: 21 February 2024 00:00
Search period end: 02 March 2024 00:00
Orbit: 724 x 945 km, 73.7° (Epoch: 20 February)

Date Brightness Start Highest point End Pass type
(mag) Time Alt. Az. Time Alt. Az. Time Alt. Az.
21 Feb ? 05:06:31 10° SE 05:10:14 17° E 05:13:53 10° ENE visible
21 Feb ? 06:47:05 10° SSW 06:53:13 62° WNW 06:59:13 10° N visible
22 Feb ? 04:50:05 10° SE 04:53:13 14° E 04:56:20 10° ENE visible
22 Feb ? 06:29:57 10° SSW 06:36:07 69° WNW 06:42:10 10° NNE visible
23 Feb ? 04:33:48 10° ESE 04:36:13 12° E 04:38:37 10° ENE visible
23 Feb ? 06:12:50 10° SSW 06:19:02 78° WNW 06:25:06 10° NNE visible
24 Feb ? 04:17:59 10° ESE 04:19:12 11° E 04:20:24 10° E visible
24 Feb ? 05:55:45 10° SSW 06:01:56 87° WNW 06:08:00 10° NNE visible
25 Feb ? 05:38:40 10° SSW 05:44:51 84° ESE 05:50:53 10° NNE visible
26 Feb ? 05:21:36 10° S 05:27:45 75° ESE 05:33:44 10° NNE visible
27 Feb ? 05:04:32 10° S 05:10:39 66° ESE 05:16:35 10° NNE visible
28 Feb ? 04:48:51 17° S 04:53:33 59° ESE 04:59:24 10° NNE visible
28 Feb ? 06:33:14 10° WSW 06:37:25 19° WNW 06:41:30 10° NNW visible
29 Feb ? 04:33:57 33° SSE 04:36:26 52° ESE 04:42:11 10° NNE visible
29 Feb ? 06:15:44 10° WSW 06:20:12 21° WNW 06:24:35 10° NNW visible
01 Mar ? 04:18:32 43° ESE 04:19:19 45° ESE 04:24:57 10° NNE visible
01 Mar ? 06:00:16 18° W 06:02:59 23° WNW 06:07:39 10° NNW visible
